Location: Freistadt
(48.5112°N, 14.5013°E)
Time: 22:56:37
(UTC+02:00)

M-CUBED/EXP-1 PRIME - Pass Details

Date: 04 April 2023
Orbit: 405 x 573 km, 101.7° (Epoch: 31 May)

Event Time Altitude Azimuth Distance (km) Brightness Sun altitude
Rises 01:42:04 0° 22° (NNE) 2,825 ? -35.4°
Reaches altitude 10° 01:44:17 10° 26° (NNE) 1,906 ? -35.3°
Enters shadow 01:45:09 16° 29° (NNE) 1,563 ? -35.3°
